Regional Weather Roundup
Issued by NWS

Home | Current Version | Previous Version | Graphics & Text | Print | Product List | Glossary On
Versions: 1 2 3 4 5 6 7 8 9 10 11 12 13 14 15 16 17 18 19 20 21 22 23 24 25 26 27 28 29 30 31 32 33 34 35 36 37 38 39 40 41 42 43 44 45 46 47 48 49 50
260
ASUS45 KSLC 292110
RWRUT

UTAH REGIONAL WEATHER ROUNDUP
NATIONAL WEATHER SERVICE SALT LAKE CITY UT
300 PM MDT MON MAY 29 2017

UTZ001>011-023>025-292200-

NORTHERN UTAH

CITY           SKY/WX    TMP DP  RH WIND       PRES   REMARKS
BRIGHAM CITY   SUNNY     79  29  15 N10       30.10F
HILL AFB       SUNNY     77  35  22 NW8       30.12F
LOGAN          SUNNY     78  38  23 MISG      30.12F
OGDEN          SUNNY     79  36  21 W12       30.10F
SALT LAKE CITY MOSUNNY   81  36  19 VRB5      30.09F
TOOELE VALLEY  SUNNY     77  41  27 N12       30.11F
WENDOVER       SUNNY     80  29  15 SE8       30.11F
HEBER CITY     SUNNY     79  25  13 W6        30.13F
WEST JORDAN    SUNNY     78  48  35 NW6       30.12F

$$

UTZ011>015-024>027-292200-

CENTRAL/NORTHEAST UTAH

CITY           SKY/WX    TMP DP  RH WIND       PRES   REMARKS
PROVO AIRPORT  SUNNY     77  23  13 W5        30.11F
MOAB/CANYONLAN SUNNY     85  19   9 N10       30.05F
DELTA          SUNNY     79  21  11 SW6       30.11F
PRICE          MOSUNNY   77  24  14 S10       30.14F
RICHFIELD      SUNNY     81  21  11 NE9         N/A
ROOSEVELT      SUNNY     77  23  13 CALM      30.16F
VERNAL         SUNNY     78  35  21 N14G21    30.16F

$$

UTZ013>016-019>022-027-292200-

SOUTHERN UTAH

CITY           SKY/WX    TMP DP  RH WIND       PRES   REMARKS
BRYCE CANYON   MOSUNNY   72  22  15 MISG      30.24F
CEDAR CITY     SUNNY     81  18   9 N9        30.10F
MILFORD        SUNNY     82  22  11 N12G21    30.10F
ST GEORGE      CLEAR     92  19   7 W8        29.92F
HANKSVILLE     SUNNY     86  21   9 NW9       30.07F
KANAB          SUNNY     86  16   7 SE6       30.09F
BLANDING       MOSUNNY   78  22  12 W5        30.21F

$$

REGIONAL REPORTS     COLORADO/ARIZONA

CITY           SKY/WX    TMP DP  RH WIND       PRES   REMARKS
CRAIG, CO      PTSUNNY   66  30  26 VRB3      30.22F
GRAND JUNCTION SUNNY     81  24  12 VRB7      30.09F
RIFLE, CO      SUNNY     79  21  11 W8        30.13F
MONTROSE, CO   SUNNY     75  15  10 VRB6      30.15F
CORTEZ, CO     SUNNY     77  11   8 CALM      30.14F
COLORADO CITY    N/A     91  25   9 SE5       30.08F
PAGE, AZ       SUNNY     88  18   7 NE10      30.03F
GRAND CANYON   MOSUNNY   74  18  12 VRB3      30.18F
KINGMAN, AZ    SUNNY     94  26   9 SW8       29.91F
FLAGSTAFF, AZ  CLOUDY    72  22  15 NE13G23   30.18F

$$

REGIONAL REPORTS    NEVADA/IDAHO/WYOMING

CITY           SKY/WX    TMP DP  RH WIND       PRES   REMARKS
LAS VEGAS, NV  MOSUNNY   97  11   4 N3        29.84F HX  90
ELY, NY        SUNNY     76  26  15 N8        30.15F
ELKO, NV       SUNNY     80  23  12 NE12      30.11F
POCATELLO, ID  MOSUNNY   77  40  26 NW8       30.15F
BURLEY, ID     SUNNY     80  40  23 SE6       30.10F
FORT BRIDGER,    N/A     68  28  22 W3        30.30S
EVANSTON, WY   MOSUNNY   68  32  26 VRB7      30.26F
ROCK SPRINGS,  SUNNY     65  32  29 NE12      30.25F
KEMMERER, WY     N/A     66  28  24 E3        30.29F

$$




USA.gov is the U.S. government's official web portal to all federal, state and local government web resources and services.